Regional Weather Roundup
Issued by NWS Austin/San Antonio, TX

Current Version | Previous Version | Text Only | Print | Product List | Glossary On
Versions: 1 2 3 4 5 6 7 8 9 10 11 12 13 14 15 16 17 18 19 20 21 22 23 24 25 26 27 28 29 30 31 32 33 34 35 36 37 38 39 40 41 42 43 44 45 46 47 48 49 50
000
ASUS44 KEWX 231702
RWREWX
SOUTH TEXAS REGIONAL WEATHER ROUNDUP
NATIONAL WEATHER SERVICE AUSTIN/SAN ANTONIO TX
1200 PM CDT FRI OCT 23 2020

NOTE: "FAIR" INDICATED FEW OR NO CLOUDS BELOW 12,000 FEET WITH NO
SIGNIFICANT WEATHER AND/OR OBSTRUCTIONS TO VISIBILITY.

* - THESE STATIONS ARE NOT NWS OR FAA STATIONS...AND ARE NOT SUBJECT
    TO NWS AND FAA QUALITY CONTROL.

TXZ171-172-183>190-231800-
TEXAS HILL COUNTRY AND EDWARDS PLATEAU

CITY           SKY/WX    TMP DP  RH WIND       PRES   REMARKS
JUNCTION       CLOUDY    66  59  78 N22G37    30.10R
*LLANO         PTSUNNY   77  66  69 NW14      30.06R
BURNET         CLOUDY    68  61  78 NE16G37   30.11R
*HORSESHOE BAY CLOUDY    79  70  73 CALM      30.06F
*LAGO VISTA    LGT RAIN  77  68  75 CALM      30.07F
*KERRVILLE     LGT RAIN  74  69  85 CALM      30.08S
*FREDERICKSBRG DRIZZLE   72  71  98 CALM      30.09R
*ROCKSPRINGS   LGT RAIN  73  66  78 N6        30.15R
*BOERNE        CLOUDY    73  70  88 E3        30.08R
*CASTROVILLE   CLOUDY    82  69  65 S6        30.03R
HONDO          CLOUDY    79  68  69 VRB5      30.02R
*UVALDE        CLOUDY    78  69  74 S5        30.02S
DEL RIO        CLOUDY    82  70  66 SE6       29.98R
*LAUGHLIN AFB  CLOUDY    81  68  64 SE7       29.99R
*SPOFFORD      CLOUDY   N/A N/A N/A SE8       29.93S
*EAGLE PASS    NOT AVBL
CARRIZO SPRGS  MOSUNNY   82  70  65 CALM      29.96S
*FAITH RANCH   MOSUNNY   86  70  58 SE5G15    29.97F HX  90
$$

TXZ173-191>194-202-209-217>225-228-231800-
CENTRAL AND SOUTH CENTRAL TEXAS

CITY           SKY/WX    TMP DP  RH WIND       PRES   REMARKS
GEORGETOWN     LGT RAIN  70  64  81 N18G28    30.10R
*TAYLOR        CLOUDY    76  71  86 CALM      30.04F
AUSTIN/BERGSTM PTSUNNY   83  70  64 CALM      30.03S
AUSTIN/MABRY   CLOUDY    81  69  67 CALM      30.05S
*PFLUGERVILLE  PTSUNNY   81  70  69 CALM      30.05S HAZE
SAN MARCOS     CLOUDY    81  71  71 N3        30.05R
NEW BRAUNFELS  CLOUDY    83  70  64 CALM      30.03R
*RANDOLPH AFB  CLOUDY    81  70  68 NE7       30.03R
*SEGUIN        CLOUDY    82  69  66 NE3       30.07R
SAN ANTONIO    CLOUDY    81  68  64 CALM      30.05R
STINSON FIELD  CLOUDY    80  69  69 CALM      29.99R
*KELLY FIELD   CLOUDY    80  70  70 CALM      30.01R
*PLEASANTON    CLOUDY    83  71  69 CALM      30.00S
*KENEDY        CLOUDY    85  72  64 W3        30.00S HX  90
*LA GRANGE     NOT AVBL
*GIDDINGS      MOSUNNY   83  71  68 CALM      30.04S
*GONZALES      CLOUDY    84  71  66 CALM      30.00R
$$

TXZ163>164-176>182-195>201-210>213-226-227-235-231800-
SOUTHEAST TEXAS

CITY           SKY/WX    TMP DP  RH WIND       PRES   REMARKS
COLLEGE STN    MOSUNNY   82  72  71 W3        30.02F
*BRYAN         MOSUNNY   83  71  67 NW3       30.05S
*CALDWELL      MOSUNNY   81  74  79 CALM      30.04S
*CROCKETT      NOT AVBL
*BRENHAM       PTSUNNY   82  74  78 CALM      30.02R
HUNTSVILLE     PTSUNNY   83  70  64 NW7       30.02R
CONROE         MOSUNNY   83  73  72 E3        30.01S
HOUSTON BUSH   PTSUNNY   84  72  67 N5        29.98F
HOUSTON HOBBY  MOSUNNY   86  70  58 SE3       29.97S HX  90
*HOUSTON SW AP MOSUNNY   83  73  71 CALM      29.99S
PEARLAND       MOSUNNY   86  70  58 CALM      29.99S HX  90
HOUSTON HOOKS  MOSUNNY   84  70  62 CALM      29.99F
ELLINGTON FLD  PTSUNNY   88  73  62 W3        29.97S HX  96
SUGAR LAND     MOSUNNY   87  71  58 CALM      29.98S HX  93
*HOUSTON EXEC  CLOUDY    82  73  74 CALM      30.00S
*CLEVELAND MUN MOSUNNY   82  75  79 CALM      30.01F
*WHARTON       MOSUNNY   84  71  65 CALM      29.99F
*COLUMBUS      NOT AVBL
*EAGLE LAKE    PTSUNNY   85  74  70 SE3       29.99S HX  92
$$

TXZ214>216-236>238-231800-
THE UPPER TEXAS COAST

CITY           SKY/WX    TMP DP  RH WIND       PRES   REMARKS
*ORANGE        CLOUDY    83  74  75 NE8       30.01F HX  90
PORT ARTHUR    PTSUNNY   82  75  79 E8        29.99S
GALVESTON      MOSUNNY   84  74  71 E9        29.98S HX  91
ANGLETON       MOSUNNY   86  72  62 S6        29.97S HX  92
*BAY CITY      SUNNY     85  73  67 CALM      29.97F HX  91
PALACIOS       MOSUNNY   85  75  72 VRB5      29.96F HX  93
$$

TXZ229>234-239>247-231800-
TEXAS COASTAL BEND AND RIO GRANDE PLAINS

CITY           SKY/WX    TMP DP  RH WIND       PRES   REMARKS
VICTORIA       CLOUDY    83  73  72 NW3       29.98F
*BEEVILLE      NOT AVBL
ROCKPORT       SUNNY     85  75  72 E6        29.96R HX  93
*PORT ARANSAS  MOSUNNY   83  76  79 E6        29.99R HX  90
*PORT LAVACA   SUNNY     84  73  70 E3        29.98S HX  91
*INGLESIDE     MOSUNNY   85  77  78 S5        29.96R HX  95
CORPUS CHRISTI PTSUNNY   88  73  62 VRB3      29.96R HX  96
CORPUS NAS     MOSUNNY   88  75  65 E9        29.96R HX  97
*ROBSTOWN      MOSUNNY   84  74  70 W3        29.97R HX  91
ALICE          MOSUNNY   86  73  65 SW6       29.96R HX  93
KINGSVILLE NAS NOT AVBL
COTULLA        MOSUNNY   85  70  60 E5        29.97S
LAREDO         MOSUNNY   88  72  58 S7        29.95F HX  94
$$

TXZ248>255-231800-
DEEP SOUTH TEXAS

CITY           SKY/WX    TMP DP  RH WIND       PRES   REMARKS
BROWNSVILLE    MOSUNNY   90  73  57 SW7       29.92S HX  98
PORT ISABEL    MOSUNNY   87  73  62 S6        29.92S HX  94
HARLINGEN      PTSUNNY   87  75  67 SW7       29.93S HX  96
*HEBBRONVILLE  CLOUDY    82  69  65 S8        29.98S
MCALLEN        SUNNY     97  72  44 VRB5      29.93S HX 105
*WESLACO       MOSUNNY   88  71  58 S7        29.93  HX  93
FALFURRIAS     MOSUNNY   83  71  66 SW5       29.95S
EDINBURG       PTSUNNY   80  66  63 S3        29.95S
*ZAPATA        MOSUNNY   89  72  56 CALM      29.96S HX  96
$$

TXZ213>215-236>238-242>244-246-247-251-254-255-231800-
CMAN STATIONS

STATION/POSITION TIME  TEMP    WIND        PRES    WAVE
                       AIR SEA DIR/SP/G            HT/PER
                 (UTC) (F)     (DEG/KT/KT) (MB)    (FT/S)
NORTH JETTY/GLS  1630   84 78  100/  8/  8 1014.3
EAGLE POINT      1630   79 80   80/  4/  4 1014.8
MORGANS POINT    1630   81 80  140/  3/  5 1015.3
PORT O`CONNOR    1630   83 84  110/  3/  4 1014.6
PORT ARANSAS     1600   80 80   90/  4/  5 1014.5
MALAQUITE BEACH  1630   84      70/  5/  6   N/A
BAFFIN BAY       1630   82 83  110/  3/  4 1013.7
PORT ISABEL      1630   84 82  140/  5/  7 1015.4
$$



USA.gov is the U.S. government's official web portal to all federal, state and local government web resources and services.